NOAA NWS Hourly Roundups by Site

Regional Weather Roundup for Baltimore MD/Washington, DC

To Select Another Site Choose from List

Select Site:  

000
ASUS41 KLWX 250311
RWRLWX

REGIONAL WEATHER ROUNDUP
NATIONAL WEATHER SERVICE BALTIMORE MD/WASHINGTON DC
1100 PM EDT FRI MAY 24 2019

Note: "FAIR" indicates few or no clouds below 12,000 feet
with no significant weather and/or obstructions to visibility.
 TC=TEMPERATURE CELSIUS

 * =Non NWS site. Station does not report precipitation (e.g. rain,
    snow, etc.), thunder, or fog.

DCZ001-MDZ009-015-VAZ040>042-051-053>054-250400-
WASHINGTON METRO

CITY           SKY/WX    TMP DP  RH WIND       PRES   REMARKS
WASHINGTON NAT FAIR      75  52  44 N5        30.10R
DULLES         FAIR      66  53  63 CALM      30.10R
ANDREWS AFB    FAIR      67  55  66 CALM      30.09R
QUANTICO       FAIR      70  63  78 NW7       30.09S
COLLEGE PARK*  FAIR      65  55  70 CALM      30.09R
LEESBURG*      FAIR      68  61  77 CALM      30.12R
MANASSAS*      FAIR      64  60  87 CALM      30.11R
GAITHERSBURG*  FAIR      63  57  81 CALM      30.12R

$$

MDZ006>007-011-014-250400-
BALTIMORE METRO

CITY           SKY/WX    TMP DP  RH WIND       PRES   REMARKS
BWI AIRPORT    FAIR      69  54  58 VRB3      30.08R
MD SCIENCE CTR   N/A     75  51  43 MISG      30.09R
MARTIN STATE   FAIR      70  54  56 CALM      30.10R
ANNAPOLIS      FAIR      72  59  63 CALM      30.08R
FORT MEADE*    FAIR      61  55  82 CALM      30.11S

$$

MDZ012-015-019>023-250400-
MARYLAND EASTERN SHORE

CITY           SKY/WX    TMP DP  RH WIND       PRES   REMARKS
OCEAN CITY     FAIR      64  57  78 CALM      30.08S
SALISBURY      FAIR      64  58  80 E5        30.08S
BAY BRIDGE AP* FAIR      70  59  68 CALM      30.08S
CAMBRIDGE*     CLEAR     64  59  82 CALM      30.08S
EASTON*        FAIR      67  57  69 CALM      30.12S

$$

MDZ017>025-250400-
SOUTHERN MARYLAND

CITY           SKY/WX    TMP DP  RH WIND       PRES   REMARKS
PATUXENT RIVER FAIR      67  63  87 SW5       30.08S
ST INIGOES     FAIR      68  60  75 CALM      30.08R
LEONARDTOWN*   FAIR      64  57  77 CALM      30.10S

$$

MDZ003>005-250400-
NORTH CENTRAL MARYLAND

CITY           SKY/WX    TMP DP  RH WIND       PRES   REMARKS
FREDERICK*     NOT AVBL
HAGERSTOWN APT FAIR      72  53  51 CALM      30.10S

$$

MDZ501>502-250400-
WESTERN MARYLAND

CITY           SKY/WX    TMP DP  RH WIND       PRES   REMARKS
OAKLAND*       FAIR      61  52  72 SW5       30.19F
CUMBERLAND*    MOCLDY    66  58  73 W3        30.15S

$$

VAZ025>031-250400-
SHENANDOAH VALLEY

CITY           SKY/WX    TMP DP  RH WIND       PRES   REMARKS
WINCHESTER*    CLOUDY    68  55  64 CALM      30.13R
FRONT ROYAL*   FAIR      68  59  73 CALM      30.11S
LURAY*         CLOUDY    72  61  68 CALM      30.13R
NEW MARKET*    CLOUDY    70  61  73 CALM      30.12R
STAUNTON*      FAIR      69  62  77 CALM      30.16R
WAYNESBORO*    FAIR      74  63  69 W9        30.14S

$$

WVZ021-048>050-054>055-250400-
EASTERN WEST VIRGINIA PANHANDLE

CITY           SKY/WX    TMP DP  RH WIND       PRES   REMARKS
MARTINSBURG    FAIR      64  55  72 CALM      30.10R
PETERSBURG*    FAIR      68  60  75 W5        30.13R

$$

VAZ036>039-050-250400-
CENTRAL FOOTHILLS

CITY           SKY/WX    TMP DP  RH WIND       PRES   REMARKS
CHARLOTTESVILL MOCLDY    76  63  64 CALM      30.10R
CULPEPER*      CLOUDY    69  60  72 CALM      30.11S
ORANGE*        CLOUDY    70  64  83 CALM      30.11R
GORDONSVILLE*  CLOUDY    67  67 100 NE3       30.10S
WARRENTON*     MOCLDY    65  58  79 CALM      30.10S

$$

VAZ055>057-250400-
NORTH AND CENTRAL PIEDMONT

CITY           SKY/WX    TMP DP  RH WIND       PRES   REMARKS
FREDERICKSBRG* FAIR      69  63  82 CALM      30.09R
STAFFORD*      FAIR      64  64 100 CALM      30.14R

$$

NCZ024-NYZ072-PAZ021-071-VAZ022-071-250400-
OTHER REGIONAL OBSERVATIONS

CITY           SKY/WX    TMP DP  RH WIND       PRES   REMARKS
NEW YORK CITY  FAIR      63  48  58 VRB3      30.15S
PHILADELPHIA   FAIR      69  50  50 NE12G18   30.10R
PITTSBURGH     MOCLDY    69  52  54 CALM      30.11R
ROANOKE        FAIR      76  65  68 NW7       30.15S
RICHMOND       FAIR      73  62  68 E3        30.08S
RALEIGH        FAIR      77  67  71 CALM      30.09R

$$

ANZ530>537-250400-
MARINE OBSERVATIONS

STATION/POSITION TIME  TEMP    WIND        PRES
                       AIR SEA DIR/SP/G
                 (UTC) (F)     (DEG/KT/KT) (MB)
THOMAS PT LIGHT  0300   74 68  320/  2/  3 1019.5R
BALT KEY BRIDGE  0248   76     360/  6/  7 1018.5R
COVE POINT       0248   72     310/  3/  3 1019.3R
LEWISETTA        0242   73 73     CALM     1018.6S
SOLOMONS ISLAND  0248   70 70  330/  2/  3 1018.3R
PINEY POINT      0230           80/  2/  2   N/A

$$



 

View Past Reports for Baltimore MD/Washington, DC.

Products Courtesy of NOAA-NWS
NWS Information Parsing Script by Ken True at Saratoga Weather - Script by SE Lincoln Weather.